NOAA 16 DEB, 41372

Orbit data source: Space-Track

NOAA 16 DEB, 41372 is space debris in SSO originally from a launch on Thu, 21 Sep 2000 UTC launched from the Air Force Western Test Range (AFWTR). Debris objects in space refer to the collection of defunct objects orbiting the Earth. Examples of debris include non-operational satellites, rocket bodies, and fragments generated from explosions, collisions, or faulty payload assembly.

Loading next visibility...
Identifier
41372, 2000-055JR
Orbit
SSO
Last TLE update
1 day ago
Origin
Manufacturer
Unknown
Mission
Spacecraft
Bus & Motor
Unknown
Mass
Unknown
Launch date (UTC)
2000-09-21 (25 years ago)
Launch vehicle
Unknown
Launch site
Air Force Western Test Range (AFWTR)
Object type
Payload
Rocket body
Debris
Shape & HBR
Unknown
Radar Cross Section
Small (<0.1 m²)

Expand to show TLE details & history

TLE from 1 day ago
0 NOAA 16 DEB
1 41372U 00055JR  25166.45816810  .00007442  00000-0  15605-2 0  9996
2 41372  98.9833  69.8222 0055338   8.4684 351.7434 14.59048091492432
Epoch: 2025-06-15T10:59Z
TLE epoch observation values (Epoch: 2025-06-15T10:59:45.723Z)
Latitude
-0.00004°
Longitude
0.89872°
Altitude
660.462 km
Speed
7.548 km/s
True Right ascension
04h 39m 17s
True Declination
0° 00' 00"
Sunlit
Object was in daylight at epoch
Visualization orbit readout
Latitude
67.70485°
Longitude
-20.44977°
Altitude
690.733 km
Speed
7.526 km/s
Apparent Right ascension
10h 09m 41s
Apparent Declination
34° 58' 36"
Sunlit
Object is in daylight
Visualization observer readout
Local Sidereal Time
00:18:26
Azimuth
26.261° NE
Elevation
-9.442°
Doppler factor
1
Orbital elements
Apogee altitude
732.502 km
Perigee altitude
654.237 km
Semi-major axis
7,071.506 km
Eccentricity
0.00553
Inclination
98.9833°
RAAN
69.8222°
Arg. of periapsis
8.4684°
True anomaly
Unknown
Mean anomaly
351.7434°
Eccentric anomaly
Unknown
Mean motion
3.64985 °/min
Orbital period
98.63 mins
BSTAR
0.0015605
Loading maneuver chart data...
Loading SW <> Apogee altitude chart data...
Loading historical data...
Loading historical data...
Loading historical data...
Loading historical data...
Loading historical data...
Loading historical data...
Loading historical data...

NOAA 16 DEB Visibility forecast

Observer location: undefined°, undefined°

Span
Click to sort rows by Start time (UTC) header in descending order
Start Az.
Max El. time (UTC)
Max El. Az.
Max El.
End time (UTC)
End Az.
7 mins2025-06-16 16:45:36.443Z124.609° SE2025-06-16 16:48:36.443Z77.308° E26.368°2025-06-16 16:52:36.443Z9.594° NNE
5 mins2025-06-16 18:24:36.443Z228.232° WSW2025-06-16 18:26:36.443Z266.27° W22.556°2025-06-16 18:29:36.443Z313.768° NW
7 mins2025-06-17 06:22:36.443Z22.115° NNE2025-06-17 06:25:36.443Z117.254° SE43.668°2025-06-17 06:29:36.443Z187.262° SSW
|